����������;��������(kVARh)
2016-02-15 00:00;0,05
2016-02-15 00:15;0,05
2016-02-15 00:30;0,25
2016-02-15 00:45;0,2
2016-02-15 01:00;0
2016-02-15 01:15;10,2
2016-02-15 01:30;10,85
2016-02-15 01:45;7,7
2016-02-15 02:00;1,7
2016-02-15 02:15;1,2
2016-02-15 02:30;0,5
2016-02-15 02:45;0,55
2016-02-15 03:00;0,75
2016-02-15 03:15;0,7
2016-02-15 03:30;0,65
2016-02-15 03:45;0,75
2016-02-15 04:00;0,75
2016-02-15 04:15;0,65
2016-02-15 04:30;0,9
2016-02-15 04:45;1,1
2016-02-15 05:00;1,6
2016-02-15 05:15;0,7
2016-02-15 05:30;1,05
2016-02-15 05:45;0,85
2016-02-15 06:00;1,25
2016-02-15 06:15;1,5
2016-02-15 06:30;1,15
2016-02-15 06:45;1,45
2016-02-15 07:00;0,25
2016-02-15 07:15;0,5
2016-02-15 07:30;0,5
2016-02-15 07:45;1,7
2016-02-15 08:00;15,95
2016-02-15 08:15;17,05
2016-02-15 08:30;10,2
2016-02-15 08:45;5,9
2016-02-15 09:00;5,1
2016-02-15 09:15;14,25
2016-02-15 09:30;3,7
2016-02-15 09:45;5,75
2016-02-15 10:00;8,75
2016-02-15 10:15;11,75
2016-02-15 10:30;11,05
2016-02-15 10:45;11,85
2016-02-15 11:00;8,65
2016-02-15 11:15;8,35
2016-02-15 11:30;8,2
2016-02-15 11:45;11,95
2016-02-15 12:00;10,7
2016-02-15 12:15;12,1
2016-02-15 12:30;16,85
2016-02-15 12:45;16,3
2016-02-15 13:00;17,25
2016-02-15 13:15;18,85
2016-02-15 13:30;18,3
2016-02-15 13:45;14,9
2016-02-15 14:00;17,1
2016-02-15 14:15;17,8
2016-02-15 14:30;17,4
2016-02-15 14:45;17,9
2016-02-15 15:00;14,6
2016-02-15 15:15;15,15
2016-02-15 15:30;16,8
2016-02-15 15:45;15,25
2016-02-15 16:00;13,7
2016-02-15 16:15;10,4
2016-02-15 16:30;12,9
2016-02-15 16:45;14,8
2016-02-15 17:00;13,35
2016-02-15 17:15;11,85
2016-02-15 17:30;10,3
2016-02-15 17:45;9,45
2016-02-15 18:00;7,85
2016-02-15 18:15;2,95
2016-02-15 18:30;3,85
2016-02-15 18:45;3,05
2016-02-15 19:00;1,55
2016-02-15 19:15;3,3
2016-02-15 19:30;4,95
2016-02-15 19:45;1,4
2016-02-15 20:00;0,65
2016-02-15 20:15;1,05
2016-02-15 20:30;0,4
2016-02-15 20:45;0,45
2016-02-15 21:00;0,3
2016-02-15 21:15;0,55
2016-02-15 21:30;0,55
2016-02-15 21:45;0,95
2016-02-15 22:00;0,25
2016-02-15 22:15;0,3
2016-02-15 22:30;0,25
2016-02-15 22:45;0,05
2016-02-15 23:00;0
2016-02-15 23:15;0,05
2016-02-15 23:30;0
2016-02-15 23:45;0
2016-02-16 00:00;0
2016-02-16 00:15;0
2016-02-16 00:30;0
2016-02-16 00:45;0
2016-02-16 01:00;0
2016-02-16 01:15;0
2016-02-16 01:30;3,2
2016-02-16 01:45;9,15
2016-02-16 02:00;2,8
2016-02-16 02:15;0,95
2016-02-16 02:30;0,35
2016-02-16 02:45;0,9
2016-02-16 03:00;0,75
2016-02-16 03:15;0,8
2016-02-16 03:30;1,05
2016-02-16 03:45;1,7
2016-02-16 04:00;1,45
2016-02-16 04:15;1,4
2016-02-16 04:30;1,05
2016-02-16 04:45;1,6
2016-02-16 05:00;2
2016-02-16 05:15;1,05
2016-02-16 05:30;1,75
2016-02-16 05:45;1
2016-02-16 06:00;2,3
2016-02-16 06:15;2,8
2016-02-16 06:30;2
2016-02-16 06:45;0,7
2016-02-16 07:00;1,6
2016-02-16 07:15;7
2016-02-16 07:30;5,7
2016-02-16 07:45;10,3
2016-02-16 08:00;17,1
2016-02-16 08:15;4,05
2016-02-16 08:30;5,85
2016-02-16 08:45;3,6
2016-02-16 09:00;5,4
2016-02-16 09:15;6,1
2016-02-16 09:30;9,25
2016-02-16 09:45;11,4
2016-02-16 10:00;11,55
2016-02-16 10:15;14
2016-02-16 10:30;17,9
2016-02-16 10:45;17,05
2016-02-16 11:00;21
2016-02-16 11:15;21,85
2016-02-16 11:30;21,75
2016-02-16 11:45;21,4
2016-02-16 12:00;20
2016-02-16 12:15;20
2016-02-16 12:30;21,35
2016-02-16 12:45;21,15
2016-02-16 13:00;21,2
2016-02-16 13:15;22,5
2016-02-16 13:30;20
2016-02-16 13:45;16,05
2016-02-16 14:00;16,9
2016-02-16 14:15;19,5
2016-02-16 14:30;18,2
2016-02-16 14:45;19,45
2016-02-16 15:00;18,35
2016-02-16 15:15;23
2016-02-16 15:30;21,35
2016-02-16 15:45;20,25
2016-02-16 16:00;17,8
2016-02-16 16:15;16,75
2016-02-16 16:30;17,9
2016-02-16 16:45;18,75
2016-02-16 17:00;14,5
2016-02-16 17:15;14,3
2016-02-16 17:30;9,05
2016-02-16 17:45;5,25
2016-02-16 18:00;2,75
2016-02-16 18:15;2,7
2016-02-16 18:30;1,45
2016-02-16 18:45;1,05
2016-02-16 19:00;0,25
2016-02-16 19:15;0,55
2016-02-16 19:30;2,25
2016-02-16 19:45;3,35
2016-02-16 20:00;0,85
2016-02-16 20:15;0,9
2016-02-16 20:30;0,65
2016-02-16 20:45;1,15
2016-02-16 21:00;0,75
2016-02-16 21:15;2,5
2016-02-16 21:30;2,15
2016-02-16 21:45;1,8
2016-02-16 22:00;0,65
2016-02-16 22:15;0,85
2016-02-16 22:30;0,5
2016-02-16 22:45;0,3
2016-02-16 23:00;0
2016-02-16 23:15;0
2016-02-16 23:30;0
2016-02-16 23:45;0
2016-02-17 00:00;0
2016-02-17 00:15;0
2016-02-17 00:30;0
2016-02-17 00:45;0
2016-02-17 01:00;0
2016-02-17 01:15;0
2016-02-17 01:30;0
2016-02-17 01:45;0,15
2016-02-17 02:00;7,4
2016-02-17 02:15;6,95
2016-02-17 02:30;1,75
2016-02-17 02:45;1,35
2016-02-17 03:00;0,8
2016-02-17 03:15;1,1
2016-02-17 03:30;0,75
2016-02-17 03:45;1,25
2016-02-17 04:00;1,4
2016-02-17 04:15;0,55
2016-02-17 04:30;0,5
2016-02-17 04:45;1,35
2016-02-17 05:00;1,15
2016-02-17 05:15;0,95
2016-02-17 05:30;1,2
2016-02-17 05:45;1,35
2016-02-17 06:00;1
2016-02-17 06:15;1,45
2016-02-17 06:30;1,2
2016-02-17 06:45;1,25
2016-02-17 07:00;1,25
2016-02-17 07:15;1,3
2016-02-17 07:30;1,1
2016-02-17 07:45;1,95
2016-02-17 08:00;8,95
2016-02-17 08:15;9
2016-02-17 08:30;9,7
2016-02-17 08:45;10,3
2016-02-17 09:00;13,15
2016-02-17 09:15;17,15
2016-02-17 09:30;18,35
2016-02-17 09:45;19,8
2016-02-17 10:00;21,35
2016-02-17 10:15;23,1
2016-02-17 10:30;29,45
2016-02-17 10:45;35,05
2016-02-17 11:00;31,15
2016-02-17 11:15;24,5
2016-02-17 11:30;26,35
2016-02-17 11:45;29,35
2016-02-17 12:00;36,35
2016-02-17 12:15;38,5
2016-02-17 12:30;38,15
2016-02-17 12:45;34,7
2016-02-17 13:00;31,95
2016-02-17 13:15;30,35
2016-02-17 13:30;32,2
2016-02-17 13:45;30,25
2016-02-17 14:00;33,5
2016-02-17 14:15;35
2016-02-17 14:30;35,95
2016-02-17 14:45;37,75
2016-02-17 15:00;39,7
2016-02-17 15:15;36,4
2016-02-17 15:30;35,6
2016-02-17 15:45;34,55
2016-02-17 16:00;33,65
2016-02-17 16:15;23,6
2016-02-17 16:30;25,25
2016-02-17 16:45;25,85
2016-02-17 17:00;23,6
2016-02-17 17:15;21,9
2016-02-17 17:30;20,75
2016-02-17 17:45;16,25
2016-02-17 18:00;15,4
2016-02-17 18:15;12,7
2016-02-17 18:30;15
2016-02-17 18:45;13,5
2016-02-17 19:00;12,75
2016-02-17 19:15;11,15
2016-02-17 19:30;9,9
2016-02-17 19:45;7,35
2016-02-17 20:00;7,85
2016-02-17 20:15;7,85
2016-02-17 20:30;1,75
2016-02-17 20:45;0,7
2016-02-17 21:00;0,65
2016-02-17 21:15;1,05
2016-02-17 21:30;0,4
2016-02-17 21:45;1,6
2016-02-17 22:00;3,1
2016-02-17 22:15;2,15
2016-02-17 22:30;1,85
2016-02-17 22:45;1
2016-02-17 23:00;1,8
2016-02-17 23:15;0,2
2016-02-17 23:30;0,45
2016-02-17 23:45;0
2016-02-18 00:00;0
2016-02-18 00:15;0
2016-02-18 00:30;0
2016-02-18 00:45;0
2016-02-18 01:00;0
2016-02-18 01:15;0
2016-02-18 01:30;0
2016-02-18 01:45;0
2016-02-18 02:00;0
2016-02-18 02:15;0,05
2016-02-18 02:30;0,15
2016-02-18 02:45;8,5
2016-02-18 03:00;9,75
2016-02-18 03:15;4,1
2016-02-18 03:30;3,6
2016-02-18 03:45;2,35
2016-02-18 04:00;3,35
2016-02-18 04:15;2,95
2016-02-18 04:30;1,55
2016-02-18 04:45;1,2
2016-02-18 05:00;0,7
2016-02-18 05:15;0,95
2016-02-18 05:30;0,5
2016-02-18 05:45;0,75
2016-02-18 06:00;0,75
2016-02-18 06:15;0,85
2016-02-18 06:30;1,05
2016-02-18 06:45;1,3
2016-02-18 07:00;1,35
2016-02-18 07:15;1,45
2016-02-18 07:30;1,4
2016-02-18 07:45;2,2
2016-02-18 08:00;5,95
2016-02-18 08:15;9
2016-02-18 08:30;9,7
2016-02-18 08:45;12,05
2016-02-18 09:00;12,7
2016-02-18 09:15;17,05
2016-02-18 09:30;21,25
2016-02-18 09:45;24,15
2016-02-18 10:00;21,5
2016-02-18 10:15;25,05
2016-02-18 10:30;22,9
2016-02-18 10:45;30,45
2016-02-18 11:00;37,7
2016-02-18 11:15;41,15
2016-02-18 11:30;39,4
2016-02-18 11:45;38,55
2016-02-18 12:00;35,9
2016-02-18 12:15;35
2016-02-18 12:30;35,75
2016-02-18 12:45;36,15
2016-02-18 13:00;35,7
2016-02-18 13:15;37
2016-02-18 13:30;36,5
2016-02-18 13:45;33,7
2016-02-18 14:00;35,3
2016-02-18 14:15;36,85
2016-02-18 14:30;38,4
2016-02-18 14:45;37,9
2016-02-18 15:00;37,95
2016-02-18 15:15;36,45
2016-02-18 15:30;36,95
2016-02-18 15:45;32,5
2016-02-18 16:00;31,85
2016-02-18 16:15;32,05
2016-02-18 16:30;34,65
2016-02-18 16:45;34,65
2016-02-18 17:00;31,2
2016-02-18 17:15;31,5
2016-02-18 17:30;25,95
2016-02-18 17:45;19,6
2016-02-18 18:00;20,15
2016-02-18 18:15;17,75
2016-02-18 18:30;13,85
2016-02-18 18:45;12,75
2016-02-18 19:00;13
2016-02-18 19:15;17,5
2016-02-18 19:30;12,7
2016-02-18 19:45;13,6
2016-02-18 20:00;12,1
2016-02-18 20:15;12,2
2016-02-18 20:30;11,35
2016-02-18 20:45;9,3
2016-02-18 21:00;10,6
2016-02-18 21:15;2,4
2016-02-18 21:30;2,05
2016-02-18 21:45;1,9
2016-02-18 22:00;1,35
2016-02-18 22:15;0,75
2016-02-18 22:30;0
2016-02-18 22:45;0,3
2016-02-18 23:00;0
2016-02-18 23:15;0,05
2016-02-18 23:30;0
2016-02-18 23:45;0
2016-02-19 00:00;0
2016-02-19 00:15;0
2016-02-19 00:30;0
2016-02-19 00:45;0
2016-02-19 01:00;0
2016-02-19 01:15;0,25
2016-02-19 01:30;0
2016-02-19 01:45;0,1
2016-02-19 02:00;0,5
2016-02-19 02:15;0,65
2016-02-19 02:30;0
2016-02-19 02:45;0,5
2016-02-19 03:00;0,9
2016-02-19 03:15;11,9
2016-02-19 03:30;7,9
2016-02-19 03:45;2,55
2016-02-19 04:00;2,4
2016-02-19 04:15;2,15
2016-02-19 04:30;0,7
2016-02-19 04:45;2,6
2016-02-19 05:00;2,3
2016-02-19 05:15;1,55
2016-02-19 05:30;1,15
2016-02-19 05:45;1,8
2016-02-19 06:00;1,95
2016-02-19 06:15;1,75
2016-02-19 06:30;1,75
2016-02-19 06:45;0,75
2016-02-19 07:00;2,6
2016-02-19 07:15;2,75
2016-02-19 07:30;0,85
2016-02-19 07:45;2,5
2016-02-19 08:00;1,6
2016-02-19 08:15;1,25
2016-02-19 08:30;1,95
2016-02-19 08:45;1,45
2016-02-19 09:00;3,3
2016-02-19 09:15;7,85
2016-02-19 09:30;10,75
2016-02-19 09:45;9,25
2016-02-19 10:00;13,35
2016-02-19 10:15;16,3
2016-02-19 10:30;14,75
2016-02-19 10:45;14,3
2016-02-19 11:00;16,05
2016-02-19 11:15;16,75
2016-02-19 11:30;28,3
2016-02-19 11:45;31,35
2016-02-19 12:00;34,25
2016-02-19 12:15;33,2
2016-02-19 12:30;35
2016-02-19 12:45;35
2016-02-19 13:00;35,15
2016-02-19 13:15;34,25
2016-02-19 13:30;36,1
2016-02-19 13:45;35,25
2016-02-19 14:00;33,55
2016-02-19 14:15;35,45
2016-02-19 14:30;35,85
2016-02-19 14:45;38,4
2016-02-19 15:00;36,55
2016-02-19 15:15;38,75
2016-02-19 15:30;37,55
2016-02-19 15:45;32,85
2016-02-19 16:00;20,8
2016-02-19 16:15;20,45
2016-02-19 16:30;20,65
2016-02-19 16:45;21,3
2016-02-19 17:00;16,7
2016-02-19 17:15;7,4
2016-02-19 17:30;4,35
2016-02-19 17:45;1,75
2016-02-19 18:00;1,8
2016-02-19 18:15;0,95
2016-02-19 18:30;0,35
2016-02-19 18:45;0,4
2016-02-19 19:00;0,9
2016-02-19 19:15;3,75
2016-02-19 19:30;12,2
2016-02-19 19:45;11
2016-02-19 20:00;12,6
2016-02-19 20:15;7,35
2016-02-19 20:30;6,45
2016-02-19 20:45;8,6
2016-02-19 21:00;8,1
2016-02-19 21:15;12,35
2016-02-19 21:30;8,3
2016-02-19 21:45;11,1
2016-02-19 22:00;10,4
2016-02-19 22:15;0,95
2016-02-19 22:30;0,65
2016-02-19 22:45;1,2
2016-02-19 23:00;1,25
2016-02-19 23:15;0,25
2016-02-19 23:30;1,3
2016-02-19 23:45;1
2016-02-20 00:00;0,85
2016-02-20 00:15;0
2016-02-20 00:30;0,05
2016-02-20 00:45;0,05
2016-02-20 01:00;0
2016-02-20 01:15;0,05
2016-02-20 01:30;0
2016-02-20 01:45;0
2016-02-20 02:00;0,1
2016-02-20 02:15;0
2016-02-20 02:30;0
2016-02-20 02:45;0
2016-02-20 03:00;0
2016-02-20 03:15;0
2016-02-20 03:30;0
2016-02-20 03:45;0,05
2016-02-20 04:00;0
2016-02-20 04:15;0,15
2016-02-20 04:30;0,25
2016-02-20 04:45;0,45
2016-02-20 05:00;0
2016-02-20 05:15;0,05
2016-02-20 05:30;0
2016-02-20 05:45;0,2
2016-02-20 06:00;0,2
2016-02-20 06:15;0,4
2016-02-20 06:30;0,4
2016-02-20 06:45;0,05
2016-02-20 07:00;0,1
2016-02-20 07:15;0,25
2016-02-20 07:30;0,15
2016-02-20 07:45;0
2016-02-20 08:00;0,2
2016-02-20 08:15;0
2016-02-20 08:30;0
2016-02-20 08:45;0
2016-02-20 09:00;0
2016-02-20 09:15;0
2016-02-20 09:30;0
2016-02-20 09:45;0
2016-02-20 10:00;0
2016-02-20 10:15;0,35
2016-02-20 10:30;0,75
2016-02-20 10:45;0,7
2016-02-20 11:00;0,1
2016-02-20 11:15;0,1
2016-02-20 11:30;0
2016-02-20 11:45;0
2016-02-20 12:00;0
2016-02-20 12:15;0
2016-02-20 12:30;0
2016-02-20 12:45;0
2016-02-20 13:00;0
2016-02-20 13:15;0
2016-02-20 13:30;0
2016-02-20 13:45;0
2016-02-20 14:00;0
2016-02-20 14:15;0,25
2016-02-20 14:30;0,45
2016-02-20 14:45;0,55
2016-02-20 15:00;1,05
2016-02-20 15:15;0,7
2016-02-20 15:30;1,9
2016-02-20 15:45;1
2016-02-20 16:00;1
2016-02-20 16:15;1,1
2016-02-20 16:30;0,75
2016-02-20 16:45;1,5
2016-02-20 17:00;2,05
2016-02-20 17:15;2,75
2016-02-20 17:30;3,3
2016-02-20 17:45;3,4
2016-02-20 18:00;2,35
2016-02-20 18:15;2,8
2016-02-20 18:30;1,8
2016-02-20 18:45;1,1
2016-02-20 19:00;0,85
2016-02-20 19:15;0,35
2016-02-20 19:30;0,4
2016-02-20 19:45;0,6
2016-02-20 20:00;0,4
2016-02-20 20:15;0,5
2016-02-20 20:30;0,7
2016-02-20 20:45;0,5
2016-02-20 21:00;0,6
2016-02-20 21:15;0,75
2016-02-20 21:30;0,5
2016-02-20 21:45;0
2016-02-20 22:00;0
2016-02-20 22:15;0
2016-02-20 22:30;0,2
2016-02-20 22:45;0,05
2016-02-20 23:00;0
2016-02-20 23:15;0
2016-02-20 23:30;0
2016-02-20 23:45;0,05
2016-02-21 00:00;0
2016-02-21 00:15;0
2016-02-21 00:30;0
2016-02-21 00:45;0
2016-02-21 01:00;0
2016-02-21 01:15;0
2016-02-21 01:30;0
2016-02-21 01:45;0,05
2016-02-21 02:00;0
2016-02-21 02:15;0,1
2016-02-21 02:30;0
2016-02-21 02:45;0
2016-02-21 03:00;0
2016-02-21 03:15;0
2016-02-21 03:30;0
2016-02-21 03:45;0
2016-02-21 04:00;0,05
2016-02-21 04:15;0,05
2016-02-21 04:30;0
2016-02-21 04:45;0,1
2016-02-21 05:00;0,3
2016-02-21 05:15;0,2
2016-02-21 05:30;0,65
2016-02-21 05:45;0,5
2016-02-21 06:00;0,8
2016-02-21 06:15;1,25
2016-02-21 06:30;0,2
2016-02-21 06:45;0,1
2016-02-21 07:00;0,2
2016-02-21 07:15;0,35
2016-02-21 07:30;0,4
2016-02-21 07:45;0,45
2016-02-21 08:00;0,35
2016-02-21 08:15;0
2016-02-21 08:30;0
2016-02-21 08:45;0,1
2016-02-21 09:00;0
2016-02-21 09:15;0
2016-02-21 09:30;0
2016-02-21 09:45;0
2016-02-21 10:00;0
2016-02-21 10:15;0,05
2016-02-21 10:30;0
2016-02-21 10:45;1,45
2016-02-21 11:00;1,25
2016-02-21 11:15;0,55
2016-02-21 11:30;0,2
2016-02-21 11:45;0,75
2016-02-21 12:00;0,3
2016-02-21 12:15;0,4
2016-02-21 12:30;0,25
2016-02-21 12:45;0,75
2016-02-21 13:00;0,05
2016-02-21 13:15;0,8
2016-02-21 13:30;0,7
2016-02-21 13:45;0,8
2016-02-21 14:00;0,7
2016-02-21 14:15;2,1
2016-02-21 14:30;1,65
2016-02-21 14:45;5,8
2016-02-21 15:00;7,3
2016-02-21 15:15;8,35
2016-02-21 15:30;7,8
2016-02-21 15:45;10,9
2016-02-21 16:00;8,65
2016-02-21 16:15;3,15
2016-02-21 16:30;0,85
2016-02-21 16:45;1,6
2016-02-21 17:00;0,85
2016-02-21 17:15;1,75
2016-02-21 17:30;1
2016-02-21 17:45;2
2016-02-21 18:00;2,15
2016-02-21 18:15;0,7
2016-02-21 18:30;0
2016-02-21 18:45;0
2016-02-21 19:00;1,9
2016-02-21 19:15;1,9
2016-02-21 19:30;2,3
2016-02-21 19:45;2,45
2016-02-21 20:00;1,55
2016-02-21 20:15;2,25
2016-02-21 20:30;1,8
2016-02-21 20:45;1
2016-02-21 21:00;0,8
2016-02-21 21:15;0,85
2016-02-21 21:30;1,45
2016-02-21 21:45;1
2016-02-21 22:00;1,2
2016-02-21 22:15;1,35
2016-02-21 22:30;2,2
2016-02-21 22:45;1,4
2016-02-21 23:00;0,05
2016-02-21 23:15;0
2016-02-21 23:30;0
2016-02-21 23:45;0,25

